| time (UTC) | temp C | wind direction | speed KPH | gust KPH | rain 1hr cm | rain 24hr cm | rain mn cm | humidity % | barometer mb |
| 20260506140010 | 17 | 308 | 4.8 | 14.5 | 0.00 | 0.00 | 0.00 | 84 | 1010.3 |
| 20260506134511 | 16 | 165 | 3.2 | 9.7 | 0.00 | 0.00 | 0.00 | 87 | 1010.7 |
| 20260506133006 | 16 | 97 | 3.2 | 16.1 | 0.00 | 0.00 | 0.00 | 87 | 1010.4 |
| 20260506131505 | 16 | 145 | 1.6 | 9.7 | 0.00 | 0.00 | 0.00 | 88 | 1010.3 |
| 20260506130007 | 16 | 143 | 1.6 | 14.5 | 0.00 | 0.00 | 0.00 | 88 | 1010.4 |
| 20260506124501 | 16 | 158 | 4.8 | 11.3 | 0.00 | 0.00 | 0.00 | 87 | 1010.4 |
| 20260506123100 | 16 | 232 | 1.6 | 6.4 | 0.00 | 0.00 | 0.00 | 86 | 1010.6 |
| 20260506121559 | 16 | 101 | 1.6 | 9.7 | 0.00 | 0.00 | 0.00 | 89 | 1011.0 |
| 20260506120057 | 15 | 27 | 1.6 | 11.3 | 0.00 | 0.00 | 0.00 | 90 | 1011.0 |
| 20260506114556 | 15 | 300 | 3.2 | 12.9 | 0.00 | 0.00 | 0.00 | 90 | 1010.9 |
| 20260506113055 | 14 | 214 | 1.6 | 9.7 | 0.00 | 0.00 | 0.00 | 93 | 1010.8 |
| 20260506111553 | 14 | 103 | 0.0 | 4.8 | 0.00 | 0.00 | 0.00 | 94 | 1011.0 |
| 20260506110053 | 13 | 97 | 0.0 | 8.0 | 0.00 | 0.00 | 0.00 | 95 | 1010.8 |
| 20260506104552 | 12 | 359 | 0.0 | 6.4 | 0.00 | 0.00 | 0.00 | 96 | 1010.9 |
| 20260506103054 | 12 | 127 | 0.0 | 3.2 | 0.00 | 0.00 | 0.00 | 97 | 1010.7 |
| 20260506101550 | 12 | 103 | 0.0 | 4.8 | 0.00 | 0.00 | 0.00 | 96 | 1010.8 |
| 20260506100050 | 12 | 94 | 0.0 | 4.8 | 0.00 | 0.00 | 0.00 | 96 | 1010.7 |
| 20260506094547 | 12 | 84 | 0.0 | 3.2 | 0.00 | 0.00 | 0.00 | 96 | 1010.6 |
| 20260506093047 | 12 | 198 | 0.0 | 1.6 | 0.00 | 0.00 | 0.00 | 96 | 1010.6 |
| 20260506091546 | 12 | 143 | 0.0 | 3.2 | 0.00 | 0.00 | 0.00 | 96 | 1010.7 |
| 20260506090049 | 12 | 137 | 0.0 | 3.2 | 0.00 | 0.00 | 0.00 | 96 | 1010.9 |
| 20260506084559 | 12 | 79 | 0.0 | 4.8 | 0.00 | 0.00 | 0.00 | 96 | 1010.9 |
| 20260506083041 | 12 | 118 | 0.0 | 3.2 | 0.00 | 0.00 | 0.00 | 95 | 1011.0 |
| 20260506081541 | 12 | 85 | 0.0 | 3.2 | 0.00 | 0.00 | 0.00 | 95 | 1011.2 |
| 20260506073035 | 12 | 160 | 0.0 | 4.8 | 0.00 | 0.00 | 0.00 | 94 | 1011.4 |
| 20260506071534 | 12 | 114 | 1.6 | 4.8 | 0.00 | 0.00 | 0.00 | 94 | 1011.5 |
| 20260506061544 | 13 | 94 | 0.0 | 3.2 | 0.00 | 0.00 | 0.00 | 91 | 1011.3 |
| 20260506044517 | 15 | 148 | 0.0 | 4.8 | 0.00 | 0.00 | 0.00 | 86 | 1011.9 |
| 20260506043015 | 15 | 240 | 0.0 | 8.0 | 0.00 | 0.00 | 0.00 | 84 | 1011.8 |
| 20260506041507 | 16 | 165 | 1.6 | 6.4 | 0.00 | 0.00 | 0.00 | 83 | 1011.8 |
| 20260506040008 | 16 | 157 | 3.2 | 11.3 | 0.00 | 0.00 | 0.00 | 82 | 1011.8 |
| 20260506034503 | 16 | 245 | 1.6 | 9.7 | 0.00 | 0.00 | 0.00 | 82 | 1011.9 |
| 20260506033004 | 16 | 263 | 3.2 | 9.7 | 0.00 | 0.00 | 0.00 | 81 | 1011.7 |
| 20260506031503 | 16 | 205 | 1.6 | 16.1 | 0.00 | 0.00 | 0.00 | 81 | 1011.6 |
| 20260506030001 | 16 | 241 | 1.6 | 8.0 | 0.00 | 0.00 | 0.00 | 80 | 1011.5 |
| 20260506024602 | 16 | 231 | 3.2 | 9.7 | 0.00 | 0.00 | 0.00 | 79 | 1011.7 |
| 20260506023103 | 16 | 211 | 0.0 | 9.7 | 0.00 | 0.00 | 0.00 | 78 | 1011.6 |
| 20260506021606 | 16 | 226 | 3.2 | 14.5 | 0.00 | 0.00 | 0.00 | 77 | 1011.7 |
| 20260506020059 | 17 | 274 | 3.2 | 14.5 | 0.00 | 0.00 | 0.00 | 76 | 1011.4 |
| 20260506014558 | 16 | 204 | 3.2 | 9.7 | 0.00 | 0.00 | 0.00 | 77 | 1011.4 |
| 20260506013105 | 17 | 203 | 1.6 | 8.0 | 0.00 | 0.00 | 0.00 | 76 | 1011.1 |
| 20260506011606 | 17 | 323 | 1.6 | 6.4 | 0.00 | 0.00 | 0.00 | 75 | 1010.9 |
| 20260506010056 | 17 | 245 | 0.0 | 6.4 | 0.00 | 0.00 | 0.00 | 74 | 1010.6 |
| 20260506004555 | 17 | 262 | 1.6 | 11.3 | 0.00 | 0.00 | 0.00 | 73 | 1010.5 |
| 20260506003055 | 17 | 360 | 1.6 | 14.5 | 0.00 | 0.00 | 0.00 | 72 | 1010.3 |
| 20260506001555 | 18 | 281 | 1.6 | 22.5 | 0.00 | 0.00 | 0.00 | 71 | 1010.2 |
| 20260506000054 | 18 | 200 | 4.8 | 17.7 | 0.00 | 0.00 | 0.00 | 71 | 1010.1 |
| 20260505234603 | 18 | 218 | 8.0 | 17.7 | 0.00 | 0.00 | 0.00 | 70 | 1009.8 |
| 20260505233051 | 18 | 288 | 4.8 | 19.3 | 0.00 | 0.00 | 0.00 | 69 | 1009.7 |
| 20260505231605 | 18 | 240 | 4.8 | 20.9 | 0.00 | 0.00 | 0.00 | 68 | 1009.6 |
| 20260505230053 | 19 | 204 | 4.8 | 16.1 | 0.00 | 0.00 | 0.00 | 67 | 1009.4 |
| 20260505224549 | 19 | 295 | 4.8 | 17.7 | 0.00 | 0.00 | 0.00 | 67 | 1009.1 |
| 20260505223048 | 20 | 255 | 6.4 | 20.9 | 0.00 | 0.00 | 0.00 | 67 | 1009.3 |
| 20260505221553 | 20 | 281 | 9.7 | 19.3 | 0.00 | 0.00 | 0.00 | 67 | 1009.4 |
| 20260505220044 | 20 | 262 | 3.2 | 19.3 | 0.00 | 0.00 | 0.00 | 66 | 1009.3 |
| 20260505214603 | 21 | 303 | 6.4 | 17.7 | 0.00 | 0.00 | 0.00 | 65 | 1009.2 |
| 20260505213042 | 21 | 116 | 4.8 | 11.3 | 0.00 | 0.00 | 0.00 | 66 | 1009.2 |
| 20260505211541 | 21 | 77 | 3.2 | 16.1 | 0.00 | 0.00 | 0.00 | 67 | 1009.1 |
| 20260505210043 | 21 | 56 | 4.8 | 14.5 | 0.00 | 0.00 | 0.00 | 66 | 1008.9 |
| 20260505204540 | 21 | 92 | 4.8 | 20.9 | 0.00 | 0.00 | 0.00 | 66 | 1009.1 |
| 20260505203036 | 21 | 285 | 1.6 | 16.1 | 0.00 | 0.00 | 0.00 | 65 | 1009.0 |
| 20260505201535 | 21 | 258 | 4.8 | 17.7 | 0.00 | 0.00 | 0.00 | 64 | 1009.2 |
| 20260505200042 | 22 | 260 | 3.2 | 14.5 | 0.00 | 0.00 | 0.00 | 64 | 1009.3 |
| 20260505194533 | 22 | 236 | 4.8 | 22.5 | 0.00 | 0.00 | 0.00 | 64 | 1009.3 |
| 20260505193035 | 22 | 116 | 6.4 | 19.3 | 0.00 | 0.00 | 0.00 | 65 | 1009.4 |
| 20260505191529 | 22 | 120 | 3.2 | 20.9 | 0.00 | 0.00 | 0.00 | 64 | 1009.6 |
| 20260505190029 | 22 | 60 | 6.4 | 16.1 | 0.00 | 0.00 | 0.00 | 64 | 1009.9 |
| 20260505184529 | 22 | 84 | 4.8 | 16.1 | 0.00 | 0.00 | 0.00 | 63 | 1010.1 |
| 20260505183030 | 22 | 253 | 4.8 | 12.9 | 0.00 | 0.00 | 0.00 | 63 | 1010.1 |
| 20260505181525 | 23 | 264 | 4.8 | 17.7 | 0.00 | 0.00 | 0.00 | 62 | 1010.3 |
| 20260505180025 | 23 | 65 | 4.8 | 17.7 | 0.00 | 0.00 | 0.00 | 61 | 1010.1 |
| 20260505174523 | 23 | 117 | 6.4 | 17.7 | 0.00 | 0.00 | 0.00 | 60 | 1010.2 |
| 20260505173021 | 23 | 289 | 3.2 | 19.3 | 0.00 | 0.00 | 0.00 | 60 | 1010.5 |
| 20260505171520 | 23 | 68 | 8.0 | 19.3 | 0.00 | 0.00 | 0.00 | 60 | 1010.4 |
| 20260505170018 | 23 | 193 | 4.8 | 12.9 | 0.00 | 0.00 | 0.00 | 60 | 1010.4 |
| 20260505164516 | 23 | 134 | 4.8 | 20.9 | 0.00 | 0.00 | 0.00 | 62 | 1010.5 |
| 20260505163018 | 23 | 315 | 3.2 | 11.3 | 0.00 | 0.00 | 0.00 | 61 | 1010.6 |
| 20260505161513 | 22 | 174 | 6.4 | 19.3 | 0.00 | 0.00 | 0.00 | 60 | 1011.0 |
| 20260505153007 | 22 | 58 | 1.6 | 14.5 | 0.00 | 0.00 | 0.00 | 64 | 1011.3 |
| 20260505151504 | 21 | 257 | 8.0 | 19.3 | 0.00 | 0.00 | 0.00 | 64 | 1011.3 |